Location: Altagracia de La Montaña
(10.1313°N, 67.0473°W)
Time: 06:54:24
(UTC+00:00)

Daily predictions for brighter satellites

Satellite Brightness Start Highest point End
(mag) Time Altitude Azimuth Time Altitude Azimuth Time Altitude Azimuth
Sich 1 3.9 23:05:53 10° NNE 23:09:35 28° E 23:13:14 10° SE
Cosmos 1733 4.0 23:07:29 10° NNE 23:10:30 27° E 23:13:32 10° SE
CZ-2C R/B 4.4 23:07:35 10° SSW 23:10:47 33° W 23:13:56 10° NW
Cosmos 1302 Rocket 4.4 23:06:00 10° NNW 23:11:13 71° WSW 23:16:27 10° S
Lacrosse 4 Rocket 2.8 23:07:40 10° NW 23:11:41 41° WSW 23:15:45 10° S
GPS 2-12 Rocket1 4.3 23:08:08 10° W 23:12:12 37° NNW 23:16:19 10° NE
ARIANE 5 R/B 4.4 19:56:54 10° W 23:14:08 57° S 23:21:41 10° ESE
Radarsat Rocket 4.2 23:09:18 10° SSE 23:15:27 71° ENE 23:22:23 10° N
FALCON 9 R/B 4.2 23:13:47 10° NNE 23:15:48 13° NE 23:18:40 10° ENE
Meteor 1-11 Rocket 3.9 23:12:55 10° N 23:18:51 72° E 23:24:47 10° SSE
USA 59 Rocket 1.9 23:13:27 10° NW 23:19:31 62° WSW 23:28:03 10° SSE
Cosmos 2279 Rocket 4.0 23:13:32 10° N 23:19:44 73° E 23:25:58 10° S
Cosmos 1340 2.4 23:18:53 10° N 23:22:10 59° E 23:25:28 10° SSE
Meteor 2-4 Rocket 3.8 23:18:12 10° S 23:24:07 80° E 23:30:00 10° N
NOAA 6 4.2 23:19:17 10° S 23:24:25 80° WSW 23:29:34 10° NNW
SAR-Lupe-2 3.7 23:21:19 10° S 23:24:52 79° W 23:28:26 10° NNW
Meteor PRIRODA 4.3 23:24:31 10° SE 23:27:29 29° ENE 23:30:26 10° NNE
SWIFT 3.0 23:26:17 10° SW 23:29:48 31° SSE 23:32:46 13° E
SL-8 R/B 3.8 23:25:38 10° NNW 23:30:19 64° NE 23:34:26 13° SE
Cosmos 2026 Rocket 4.3 23:24:51 10° SSE 23:30:46 45° E 23:36:35 10° NNE
Cosmos 1697 Rocket 3.8 23:28:02 10° NNE 23:32:30 24° ENE 23:35:59 14° ESE
Cosmos 1975 4.3 23:30:25 10° NE 23:32:58 17° E 23:34:17 15° ESE
ADEOS Rocket 4.0 23:26:58 10° S 23:33:42 61° WSW 23:41:05 10° NNW
Cosmos 1626 1.8 23:33:41 10° S 23:36:51 75° W 23:40:01 10° N
Meteor 2-10 3.9 23:33:03 10° N 23:38:04 88° E 23:43:07 10° S
CZ-4B R/B 3.8 23:37:42 15° SE 23:40:24 30° ENE 23:44:05 10° NNE
Cosmos 1328 Rocket 3.4 23:36:46 10° S 23:41:03 74° E 23:45:18 10° N
COSMOS 2406 4.1 23:36:04 10° SSW 23:41:40 53° WNW 23:47:14 10° N
USA 186 4.2 23:42:31 11° ENE 23:42:31 11° ENE 23:42:56 10° ENE
GPS 2-15 Rocket1 3.2 23:41:00 10° WSW 23:45:47 81° NNW 23:50:37 10° ENE
ATLAS CENTAUR R/B 1.1 23:45:54 10° S 23:49:15 46° ESE 23:52:33 10° NE
Cosmos 44 Rocket 3.3 23:44:42 10° NNW 23:49:22 73° WSW 23:53:32 12° SSE
Cosmos 1980 Rocket 3.9 23:48:22 10° NE 23:51:15 14° ENE 23:52:08 14° E
Cosmos 1743 Rocket 3.8 23:50:16 10° N 23:54:40 70° W 23:59:03 10° S
